#timestamp,LO_Frequency,Hit,StdDev 
1679608815.2,286046998.3,N
1679608835.0,286046997.7,N
1679608835.9,286046997.7,N
1679608855.8,286046999.4,N
1679608875.6,286046996.3,Y
1679608895.4,286046998.4,P
1679608915.3,286046994.9,P
1679608935.1,286046999.1,N
1679608955.9,286047000.6,N
1679608975.7,286046999.8,N
1679608995.5,286047000.4,N
1679609015.4,286047002.7,N
1679609035.2,286046996.8,N
1679609055.0,286046997.7,N
1679609055.9,286046997.7,N
1679609075.8,286046997.0,N
1679609095.6,286046998.1,N
1679609115.5,286046996.9,N
1679609135.3,286046998.6,N
1679609155.1,286047001.4,N
1679609175.9,286047001.5,N
1679609195.7,286047002.0,N
1679609215.5,286047000.8,N
1679609235.4,286047000.3,N
1679609255.2,286047000.4,N
1679609275.0,286047003.7,N
1679609275.9,286047003.7,N
1679609295.8,286047004.8,N
1679609315.6,286047003.2,N
1679609335.5,286047006.0,N
1679609355.3,286047004.1,N
1679609375.1,286047008.9,Y
1679609395.9,286047008.8,P
1679609415.7,286047010.5,N
1679609435.5,286047006.2,N
1679609455.4,286047004.3,N
1679609475.2,286047000.9,N
1679609495.1,286047004.7,N
1679609496.0,286047004.7,N
1679609515.8,286047008.9,N
1679609535.6,286047008.7,N
1679609555.5,286047007.8,N
1679609575.3,286047009.2,N
1679609595.1,286047006.3,N
1679609615.9,286047005.1,N
1679609635.7,286047002.2,N
1679609655.6,286047001.6,N
1679609675.4,286047002.5,N
1679609695.2,286047000.3,N
1679609715.1,286046997.8,N
1679609716.0,286046997.8,N
1679609735.8,286046995.4,N
1679609755.6,286046997.2,N
1679609775.5,286046998.3,N
1679609795.3,286046999.0,N
1679609815.2,286047005.6,N
1679609835.9,286047000.3,N
1679609855.7,286047000.2,N
1679609875.6,286046998.7,N
1679609895.4,286047001.5,N
1679609915.2,286047003.1,N
1679609935.1,286047004.7,N
1679609936.0,286047004.7,N
1679609955.8,286047003.3,N
1679609975.7,286047006.2,N
1679609995.5,286047011.8,Y
1679610015.3,286047014.8,P
1679610035.2,286047021.1,P
1679610055.0,286047027.7,P
1679610055.9,286047027.7,Y
1679610075.8,286047010.8,P
1679610095.6,286047003.6,N
1679610115.4,286047001.7,N
1679610135.3,286047000.3,N
1679610185.1,286046996.5,E
1679610195.1,286046998.4,N
1679610196.0,286046998.4,P
1679610215.8,286047003.7,P
1679610235.6,286047004.3,N
1679610255.5,286047002.5,N
1679610275.3,286047002.1,N
1679610295.1,286047000.0,N
1679610315.9,286047001.4,N
1679610335.7,286047009.1,Y
1679610355.6,286047004.6,P
1679610375.4,286047005.9,P
1679610395.2,286047006.0,P
1679610415.1,286046998.2,N
1679610416.0,286046998.2,N
1679610435.8,286046998.7,N
1679610455.6,286046999.4,N
1679610475.5,286046999.8,N
1679610495.3,286047004.8,N
1679610515.2,286047006.2,N
1679610535.9,286047003.0,N
1679610555.7,286046998.6,N
1679610575.6,286046997.3,N
1679610595.4,286046996.0,N
1679610615.2,286046995.9,N
1679610635.1,286046993.9,N
1679610636.0,286046993.9,N
1679610655.8,286046996.0,N
1679610675.7,286046997.2,N
1679610695.5,286046995.0,N
1679610715.3,286046991.7,N
1679610735.2,286046993.6,N
1679610755.0,286046991.5,N
1679610755.9,286046991.5,N
1679610775.7,286046990.3,N
1679610795.6,286046990.6,N
1679610815.4,286046989.0,N
1679610835.3,286046991.8,N
1679610855.1,286046992.6,N
1679610856.0,286046992.6,N
1679610875.8,286046989.8,N
1679610895.7,286046990.7,N
1679610915.5,286046994.1,N
1679610935.3,286046995.6,N
1679610955.2,286046998.5,N
1679610975.0,286046999.9,N
1679610975.9,286046999.9,N
1679610995.8,286047000.3,N
1679611015.6,286047004.5,N
1679611035.4,286047007.6,N
1679611055.3,286047001.7,N
1679611075.1,286047003.6,N
1679611095.9,286047001.5,N
1679611115.7,286047001.9,N
1679611135.5,286047006.0,N
1679611155.4,286046999.7,N
1679611175.2,286047000.0,N
1679611195.0,286047000.4,N
1679611195.9,286047000.4,N
1679611215.8,286047004.4,N
1679611235.6,286047005.4,N
1679611255.5,286047005.1,N
1679611275.3,286047004.1,N
1679611295.1,286046999.0,N
1679611315.9,286047000.8,N
1679611335.7,286047005.1,N
1679611355.5,286047013.2,N
1679611375.4,286047018.2,Y
1679611395.2,286047015.9,P
1679611415.1,286047018.7,N
1679611416.0,286047018.7,N
1679611435.8,286047013.0,N
1679611455.6,286047013.1,N
1679611475.5,286047012.2,N
1679611495.3,286047010.6,N
1679611515.1,286047008.4,N
1679611535.9,286047009.0,N
1679611555.7,286047005.4,N
1679611575.6,286047008.7,N
1679611595.4,286047004.3,N
1679611615.2,286047001.2,N
1679611635.1,286047004.2,N
1679611636.0,286047004.2,N
1679611655.8,286047010.7,N
1679611675.6,286047014.9,N
1679611695.5,286047013.1,N
1679611715.3,286047016.2,Y
1679611735.2,286047009.9,P
1679611755.9,286047010.2,P
1679611775.7,286047015.4,P
1679611795.6,286047013.1,Y
1679611815.4,286047005.2,P
1679611835.3,286047001.6,N
1679611855.1,286047001.0,N
1679611856.0,286047001.0,N
1679611875.8,286047001.6,N
1679611895.7,286046999.4,N
1679611915.5,286046996.2,N
1679611935.3,286046996.1,N
1679611955.2,286047001.2,N
1679611975.0,286047002.1,N
1679611975.9,286047002.1,N
1679611995.8,286046999.7,N
1679612015.6,286046996.1,N
1679612035.4,286046995.5,N
1679612055.3,286046993.9,N
1679612075.1,286046995.4,N
1679612095.8,286046994.8,N
1679612115.7,286046992.9,N
1679612135.5,286046987.2,N
1679612155.4,286046987.8,N
1679612175.2,286046989.9,N
1679612195.0,286046989.2,N
1679612195.9,286046989.2,N
1679612215.8,286046987.6,N
1679612235.6,286046988.7,N
1679612255.4,286046989.7,N
1679612275.3,286046989.3,N
1679612295.1,286046987.6,N
1679612315.9,286046991.6,N
1679612335.7,286046992.9,N
1679612355.6,286046990.1,N
1679612375.4,286046998.1,N
1679612395.2,286047006.1,N
